| time (UTC) | temp F | wind direction | speed MPH | gust MPH | rain 1hr in | rain 24hr in | rain mn in | humidity % | barometer mb |
| 20260504023853 | 64 | 291 | 1.0 | 3.0 | 0.00 | 0.06 | 0.06 | 28 | 975.0 |
| 20260504023347 | 64 | 291 | 1.0 | 3.0 | 0.00 | 0.06 | 0.06 | 28 | 974.9 |
| 20260504022841 | 64 | 291 | 1.0 | 3.0 | 0.00 | 0.06 | 0.06 | 27 | 974.9 |
| 20260504022335 | 64 | 291 | 1.0 | 2.0 | 0.00 | 0.06 | 0.06 | 27 | 974.9 |
| 20260504021322 | 65 | 291 | 1.0 | 3.0 | 0.00 | 0.06 | 0.06 | 28 | 975.0 |
| 20260504020816 | 65 | 291 | 1.0 | 3.0 | 0.00 | 0.06 | 0.06 | 27 | 975.0 |
| 20260504020311 | 65 | 291 | 1.0 | 3.0 | 0.00 | 0.06 | 0.06 | 28 | 974.9 |
| 20260504015805 | 66 | 291 | 1.0 | 2.0 | 0.00 | 0.06 | 0.06 | 27 | 974.9 |
| 20260504015259 | 66 | 291 | 1.0 | 3.0 | 0.00 | 0.06 | 0.06 | 27 | 974.9 |
| 20260504014246 | 67 | 291 | 1.0 | 3.0 | 0.00 | 0.06 | 0.06 | 26 | 974.9 |
| 20260504013741 | 67 | 291 | 2.0 | 3.0 | 0.00 | 0.06 | 0.06 | 26 | 974.9 |
| 20260504013234 | 67 | 291 | 2.0 | 3.0 | 0.00 | 0.06 | 0.06 | 26 | 974.9 |
| 20260504012224 | 68 | 292 | 2.0 | 5.0 | 0.00 | 0.06 | 0.06 | 26 | 974.9 |
| 20260504011718 | 68 | 291 | 1.0 | 3.0 | 0.00 | 0.06 | 0.06 | 26 | 974.7 |
| 20260504011212 | 68 | 291 | 1.0 | 2.0 | 0.00 | 0.06 | 0.06 | 25 | 974.5 |
| 20260504010705 | 69 | 291 | 1.0 | 2.0 | 0.00 | 0.06 | 0.06 | 25 | 974.3 |
| 20260504010158 | 69 | 291 | 1.0 | 1.0 | 0.00 | 0.06 | 0.06 | 25 | 974.2 |
| 20260504005653 | 69 | 291 | 1.0 | 2.0 | 0.00 | 0.06 | 0.06 | 24 | 974.2 |
| 20260504005146 | 70 | 291 | 1.0 | 3.0 | 0.00 | 0.06 | 0.06 | 23 | 974.3 |
| 20260504004647 | 70 | 291 | 1.0 | 3.0 | 0.00 | 0.06 | 0.06 | 23 | 974.2 |
| 20260504004145 | 70 | 291 | 2.0 | 5.0 | 0.00 | 0.06 | 0.06 | 22 | 974.2 |
| 20260504003144 | 71 | 289 | 3.0 | 7.0 | 0.00 | 0.06 | 0.06 | 21 | 974.1 |
| 20260504002645 | 71 | 285 | 3.0 | 7.0 | 0.00 | 0.06 | 0.06 | 21 | 974.0 |
| 20260504001647 | 72 | 298 | 3.0 | 9.0 | 0.00 | 0.06 | 0.06 | 20 | 974.0 |
| 20260504000647 | 72 | 263 | 4.0 | 10.0 | 0.00 | 0.06 | 0.06 | 18 | 973.9 |
| 20260504000147 | 72 | 278 | 4.0 | 9.0 | 0.00 | 0.06 | 0.06 | 18 | 973.9 |
| 20260503235644 | 73 | 307 | 5.0 | 13.0 | 0.00 | 0.06 | 0.06 | 19 | 973.9 |
| 20260503235143 | 73 | 299 | 6.0 | 13.0 | 0.00 | 0.06 | 0.06 | 18 | 973.8 |
| 20260503234645 | 73 | 273 | 6.0 | 13.0 | 0.00 | 0.06 | 0.06 | 19 | 973.8 |
| 20260503234140 | 74 | 261 | 6.0 | 11.0 | 0.00 | 0.06 | 0.06 | 18 | 973.8 |
| 20260503233140 | 74 | 270 | 7.0 | 13.0 | 0.00 | 0.06 | 0.06 | 18 | 973.9 |
| 20260503232641 | 74 | 281 | 7.0 | 13.0 | 0.00 | 0.06 | 0.06 | 18 | 973.9 |
| 20260503232141 | 74 | 298 | 6.0 | 12.0 | 0.00 | 0.06 | 0.06 | 18 | 974.0 |
| 20260503231642 | 74 | 310 | 7.0 | 15.0 | 0.00 | 0.06 | 0.06 | 18 | 974.0 |
| 20260503231137 | 74 | 292 | 8.0 | 15.0 | 0.00 | 0.06 | 0.06 | 17 | 974.1 |
| 20260503230637 | 74 | 313 | 8.0 | 15.0 | 0.00 | 0.06 | 0.06 | 17 | 973.9 |
| 20260503230136 | 74 | 284 | 9.0 | 18.0 | 0.00 | 0.06 | 0.06 | 18 | 973.9 |
| 20260503225636 | 74 | 323 | 8.0 | 18.0 | 0.00 | 0.06 | 0.06 | 18 | 973.9 |
| 20260503225136 | 74 | 279 | 6.0 | 11.0 | 0.00 | 0.06 | 0.06 | 22 | 973.9 |
| 20260503224636 | 75 | 259 | 6.0 | 14.0 | 0.00 | 0.06 | 0.06 | 22 | 973.8 |
| 20260503224136 | 74 | 277 | 7.0 | 14.0 | 0.00 | 0.06 | 0.06 | 22 | 973.9 |
| 20260503223136 | 75 | 266 | 6.0 | 12.0 | 0.00 | 0.06 | 0.06 | 21 | 973.8 |
| 20260503222636 | 75 | 248 | 6.0 | 12.0 | 0.00 | 0.06 | 0.06 | 21 | 973.8 |
| 20260503222134 | 75 | 252 | 6.0 | 12.0 | 0.00 | 0.06 | 0.06 | 21 | 973.8 |
| 20260503221634 | 74 | 284 | 6.0 | 12.0 | 0.00 | 0.06 | 0.06 | 21 | 973.8 |
| 20260503221134 | 74 | 274 | 7.0 | 15.0 | 0.00 | 0.06 | 0.06 | 20 | 973.8 |
| 20260503220634 | 74 | 263 | 8.0 | 16.0 | 0.00 | 0.06 | 0.06 | 20 | 973.8 |
| 20260503220136 | 74 | 271 | 8.0 | 16.0 | 0.00 | 0.06 | 0.06 | 21 | 973.8 |
| 20260503215634 | 74 | 300 | 7.0 | 15.0 | 0.00 | 0.06 | 0.06 | 21 | 973.8 |
| 20260503215134 | 74 | 325 | 8.0 | 15.0 | 0.00 | 0.06 | 0.06 | 19 | 973.8 |
| 20260503214634 | 75 | 273 | 7.0 | 15.0 | 0.00 | 0.06 | 0.06 | 20 | 973.8 |
| 20260503214134 | 75 | 311 | 7.0 | 13.0 | 0.00 | 0.06 | 0.06 | 22 | 973.9 |
| 20260503213134 | 74 | 300 | 6.0 | 13.0 | 0.00 | 0.06 | 0.06 | 22 | 973.9 |
| 20260503212634 | 75 | 272 | 7.0 | 16.0 | 0.00 | 0.06 | 0.06 | 22 | 973.9 |
| 20260503212134 | 75 | 230 | 6.0 | 16.0 | 0.00 | 0.06 | 0.06 | 21 | 973.8 |
| 20260503211634 | 75 | 259 | 6.0 | 14.0 | 0.00 | 0.06 | 0.06 | 23 | 973.9 |
| 20260503211134 | 74 | 309 | 7.0 | 14.0 | 0.00 | 0.06 | 0.06 | 23 | 973.7 |
| 20260503210635 | 75 | 244 | 5.0 | 12.0 | 0.00 | 0.06 | 0.06 | 23 | 973.7 |
| 20260503210128 | 75 | 251 | 5.0 | 12.0 | 0.00 | 0.06 | 0.06 | 24 | 973.8 |
| 20260503205622 | 74 | 227 | 6.0 | 14.0 | 0.00 | 0.06 | 0.06 | 23 | 973.8 |
| 20260503205116 | 74 | 272 | 7.0 | 14.0 | 0.00 | 0.06 | 0.06 | 23 | 974.1 |
| 20260503204610 | 74 | 277 | 6.0 | 14.0 | 0.00 | 0.06 | 0.06 | 24 | 974.2 |
| 20260503204104 | 74 | 267 | 6.0 | 16.0 | 0.00 | 0.06 | 0.06 | 24 | 974.2 |
| 20260503203557 | 74 | 275 | 7.0 | 16.0 | 0.00 | 0.06 | 0.06 | 25 | 974.2 |
| 20260503203052 | 73 | 240 | 7.0 | 16.0 | 0.00 | 0.06 | 0.06 | 26 | 974.4 |
| 20260503202546 | 74 | 248 | 7.0 | 16.0 | 0.00 | 0.06 | 0.06 | 26 | 974.5 |
| 20260503202039 | 73 | 229 | 6.0 | 12.0 | 0.00 | 0.06 | 0.06 | 26 | 974.5 |
| 20260503201533 | 73 | 260 | 6.0 | 12.0 | 0.00 | 0.06 | 0.06 | 26 | 974.6 |
| 20260503201027 | 73 | 265 | 7.0 | 13.0 | 0.00 | 0.06 | 0.06 | 26 | 974.7 |
| 20260503200015 | 73 | 236 | 6.0 | 13.0 | 0.00 | 0.06 | 0.06 | 28 | 974.7 |
| 20260503195509 | 72 | 220 | 6.0 | 13.0 | 0.00 | 0.06 | 0.06 | 27 | 974.8 |
| 20260503195003 | 72 | 273 | 6.0 | 14.0 | 0.00 | 0.06 | 0.06 | 27 | 975.0 |
| 20260503194457 | 72 | 254 | 7.0 | 14.0 | 0.00 | 0.06 | 0.06 | 26 | 975.1 |
| 20260503193951 | 72 | 209 | 7.0 | 13.0 | 0.00 | 0.06 | 0.06 | 27 | 975.1 |
| 20260503193446 | 71 | 256 | 5.0 | 13.0 | 0.00 | 0.06 | 0.06 | 28 | 975.3 |
| 20260503192939 | 71 | 270 | 6.0 | 14.0 | 0.00 | 0.06 | 0.06 | 28 | 975.4 |
| 20260503192433 | 71 | 238 | 7.0 | 14.0 | 0.00 | 0.06 | 0.06 | 28 | 975.5 |
| 20260503191927 | 71 | 240 | 5.0 | 13.0 | 0.00 | 0.06 | 0.06 | 28 | 975.4 |
| 20260503191421 | 71 | 218 | 4.0 | 10.0 | 0.00 | 0.06 | 0.06 | 29 | 975.5 |
| 20260503190916 | 70 | 262 | 6.0 | 14.0 | 0.00 | 0.06 | 0.06 | 29 | 975.6 |
| 20260503185904 | 69 | 243 | 7.0 | 15.0 | 0.00 | 0.06 | 0.06 | 30 | 975.7 |
| 20260503185358 | 69 | 230 | 8.0 | 18.0 | 0.00 | 0.06 | 0.06 | 30 | 975.8 |
| 20260503184345 | 68 | 240 | 7.0 | 17.0 | 0.00 | 0.06 | 0.06 | 30 | 975.8 |
| 20260503183839 | 68 | 202 | 7.0 | 15.0 | 0.00 | 0.06 | 0.06 | 32 | 975.9 |
| 20260503183333 | 67 | 185 | 8.0 | 16.0 | 0.00 | 0.06 | 0.06 | 31 | 976.1 |
| 20260503182827 | 67 | 245 | 8.0 | 16.0 | 0.00 | 0.06 | 0.06 | 30 | 976.1 |
| 20260503182322 | 67 | 221 | 9.0 | 16.0 | 0.00 | 0.06 | 0.06 | 31 | 976.2 |
| 20260503181309 | 66 | 212 | 7.0 | 16.0 | 0.00 | 0.06 | 0.06 | 32 | 976.2 |
| 20260503180804 | 66 | 257 | 8.0 | 20.0 | 0.00 | 0.06 | 0.06 | 32 | 976.3 |
| 20260503180258 | 66 | 239 | 8.0 | 20.0 | 0.00 | 0.06 | 0.06 | 32 | 976.5 |
| 20260503175752 | 65 | 254 | 8.0 | 17.0 | 0.00 | 0.06 | 0.06 | 32 | 976.6 |
| 20260503175245 | 65 | 203 | 8.0 | 17.0 | 0.00 | 0.06 | 0.06 | 33 | 976.5 |
| 20260503174739 | 65 | 224 | 8.0 | 16.0 | 0.00 | 0.06 | 0.06 | 33 | 976.6 |
| 20260503174234 | 64 | 233 | 8.0 | 16.0 | 0.00 | 0.06 | 0.06 | 33 | 976.7 |
| 20260503173728 | 64 | 204 | 9.0 | 15.0 | 0.00 | 0.06 | 0.06 | 34 | 976.8 |
| 20260503173222 | 64 | 218 | 9.0 | 15.0 | 0.00 | 0.06 | 0.06 | 34 | 976.8 |
| 20260503172716 | 64 | 240 | 9.0 | 17.0 | 0.00 | 0.06 | 0.06 | 33 | 976.9 |
| 20260503172210 | 63 | 248 | 9.0 | 20.0 | 0.00 | 0.06 | 0.06 | 34 | 976.8 |
| 20260503171703 | 63 | 215 | 8.0 | 19.0 | 0.00 | 0.06 | 0.06 | 35 | 976.8 |
| 20260503170652 | 62 | 253 | 9.0 | 16.0 | 0.00 | 0.06 | 0.06 | 35 | 977.0 |
| 20260503170146 | 61 | 219 | 9.0 | 17.0 | 0.00 | 0.06 | 0.06 | 37 | 976.9 |
| 20260503150524 | 56 | 192 | 8.0 | 20.0 | 0.00 | 0.06 | 0.06 | 42 | 978.2 |
| 20260503131017 | 50 | 175 | 6.0 | 17.0 | 0.00 | 0.06 | 0.06 | 51 | 979.3 |
| 20260503110343 | 52 | 237 | 5.0 | 17.0 | 0.02 | 0.02 | 0.02 | 52 | 981.6 |
| 20260503090118 | 50 | 217 | 7.0 | 16.0 | 0.00 | 0.00 | 0.00 | 42 | 981.8 |
| 20260503081525 | 50 | 213 | 7.0 | 14.0 | 0.00 | 0.00 | 0.00 | 40 | 981.6 |
| 20260503081018 | 50 | 181 | 7.0 | 15.0 | 0.00 | 0.00 | 0.00 | 40 | 981.5 |
| 20260503080515 | 50 | 221 | 7.0 | 15.0 | 0.00 | 0.00 | 0.00 | 40 | 981.5 |
| 20260503072014 | 51 | 207 | 6.0 | 12.0 | 0.00 | 0.00 | 0.00 | 38 | 981.8 |
| 20260503071514 | 51 | 190 | 7.0 | 12.0 | 0.00 | 0.00 | 0.00 | 38 | 982.0 |
| 20260503071014 | 51 | 206 | 6.0 | 11.0 | 0.00 | 0.00 | 0.00 | 38 | 982.0 |
| 20260503054918 | 51 | 209 | 5.0 | 11.0 | 0.00 | 0.00 | 0.00 | 37 | 982.7 |
| 20260503054418 | 51 | 241 | 5.0 | 9.0 | 0.00 | 0.00 | 0.00 | 37 | 982.7 |
| 20260503053918 | 51 | 215 | 5.0 | 11.0 | 0.00 | 0.00 | 0.00 | 36 | 982.7 |
| 20260503053418 | 51 | 182 | 6.0 | 11.0 | 0.00 | 0.00 | 0.00 | 36 | 982.7 |
| 20260503052919 | 51 | 211 | 6.0 | 12.0 | 0.00 | 0.00 | 0.00 | 36 | 982.8 |
| 20260503052418 | 51 | 215 | 6.0 | 12.0 | 0.00 | 0.00 | 0.00 | 36 | 982.7 |
| 20260503051919 | 51 | 215 | 6.0 | 11.0 | 0.00 | 0.00 | 0.00 | 36 | 982.8 |
| 20260503051419 | 51 | 218 | 6.0 | 12.0 | 0.00 | 0.00 | 0.00 | 36 | 982.9 |
| 20260503050918 | 51 | 215 | 5.0 | 12.0 | 0.00 | 0.00 | 0.00 | 35 | 982.9 |
| 20260503050418 | 51 | 209 | 6.0 | 10.0 | 0.00 | 0.00 | 0.00 | 36 | 982.9 |
| 20260503045918 | 51 | 209 | 6.0 | 11.0 | 0.00 | 0.00 | 0.00 | 35 | 982.9 |
| 20260503045419 | 51 | 259 | 6.0 | 11.0 | 0.00 | 0.00 | 0.00 | 35 | 983.0 |
| 20260503044419 | 51 | 217 | 6.0 | 12.0 | 0.00 | 0.00 | 0.00 | 35 | 983.0 |
| 20260503043917 | 51 | 219 | 6.0 | 12.0 | 0.00 | 0.00 | 0.00 | 35 | 983.0 |
| 20260503043415 | 51 | 219 | 6.0 | 10.0 | 0.00 | 0.00 | 0.00 | 35 | 983.0 |
| 20260503042915 | 51 | 205 | 6.0 | 10.0 | 0.00 | 0.00 | 0.00 | 34 | 983.0 |
| 20260503042415 | 52 | 222 | 6.0 | 11.0 | 0.00 | 0.00 | 0.00 | 34 | 983.1 |
| 20260503041918 | 52 | 206 | 6.0 | 11.0 | 0.00 | 0.00 | 0.00 | 34 | 983.2 |
| 20260503041415 | 52 | 201 | 5.0 | 10.0 | 0.00 | 0.00 | 0.00 | 34 | 983.3 |
| 20260503040916 | 52 | 231 | 5.0 | 10.0 | 0.00 | 0.00 | 0.00 | 34 | 983.4 |
| 20260503035915 | 52 | 204 | 6.0 | 14.0 | 0.00 | 0.00 | 0.00 | 33 | 983.5 |
| 20260503035415 | 52 | 209 | 6.0 | 14.0 | 0.00 | 0.00 | 0.00 | 33 | 983.6 |
| 20260503034914 | 52 | 213 | 5.0 | 11.0 | 0.00 | 0.00 | 0.00 | 32 | 983.8 |
| 20260503033903 | 53 | 207 | 5.0 | 9.0 | 0.00 | 0.00 | 0.00 | 32 | 983.7 |
| 20260503033357 | 53 | 216 | 5.0 | 9.0 | 0.00 | 0.00 | 0.00 | 32 | 983.7 |
| 20260503032850 | 53 | 201 | 5.0 | 8.0 | 0.00 | 0.00 | 0.00 | 31 | 983.8 |
| 20260503032344 | 53 | 207 | 5.0 | 8.0 | 0.00 | 0.00 | 0.00 | 32 | 983.8 |
| 20260503031838 | 53 | 183 | 4.0 | 8.0 | 0.00 | 0.00 | 0.00 | 32 | 983.7 |
| 20260503031333 | 53 | 207 | 4.0 | 8.0 | 0.00 | 0.00 | 0.00 | 31 | 983.8 |
| 20260503030826 | 53 | 211 | 5.0 | 8.0 | 0.00 | 0.00 | 0.00 | 31 | 983.9 |
| 20260503030320 | 53 | 211 | 5.0 | 8.0 | 0.00 | 0.00 | 0.00 | 32 | 983.9 |
| 20260503025814 | 53 | 202 | 5.0 | 9.0 | 0.00 | 0.00 | 0.00 | 32 | 983.9 |
| 20260503025308 | 53 | 192 | 5.0 | 9.0 | 0.00 | 0.00 | 0.00 | 32 | 984.0 |
| 20260503024802 | 53 | 206 | 5.0 | 8.0 | 0.00 | 0.00 | 0.00 | 32 | 983.9 |
| 20260503024256 | 53 | 196 | 5.0 | 9.0 | 0.00 | 0.00 | 0.00 | 32 | 983.9 |